Angel Fire, NM

6:08 PM MST on November 22, 2017 (GMT -0700)
Angel Fire

Weather History for KAXX - November, 2012

Change the Weather History Date:

Friday, November 9, 2012

  Actual Average (KSKX) Record (KSKX)
Temperature  
Mean Temperature 35 °F -  
Max Temperature 50 °F 49 °F 66 °F (2005)
Min Temperature 20 °F 21 °F 15 °F (2011)
Degree Days  
Heating Degree Days 30    
Moisture  
Dew Point 27 °F    
Average Humidity 58    
Maximum Humidity 82    
Minimum Humidity 26    
Precipitation  
Precipitation 0.04 in - - ()
Sea Level Pressure  
Sea Level Pressure 29.99 in    
Wind  
Wind Speed 10 mph (WSW)    
Max Wind Speed 30 mph    
Max Gust Speed 45 mph    
Visibility 10 miles    
Events Rain , Snow    
Averages and records for this station are not official NWS values.
T = Trace of Precipitation, MM = Missing Value Source: NWS Daily Summary

Daily Weather History Graph

Daily Weather History Graph

Search for Another Location

Airport or City:

Trip Planner

Search our weather history database for the weather conditions in past years. The results will help you decide how hot, cold, wet, or windy it might be!

Date:

Astronomy

Nov. 09, 2012 Rise Set
Actual Time 6:32 AM MST 4:56 PM MST
Civil Twilight 6:05 AM MST 5:23 PM MST
Nautical Twilight 5:34 AM MST 5:54 PM MST
Astronomical Twilight 5:04 AM MST 6:24 PM MST
Moon 1:42 AM MST (11/9) 2:04 PM MST (11/9)
Length of Visible Light 11h 18m
Length of Day
10h 23m
Waning Crescent, 22% of the Moon is Illuminated
Nov 9
Waning Crescent
Nov 13
New
Nov 20
First Quarter
Nov 28
Full
Dec 6
Last Quarter

Hourly Weather History & Observations

Time (MST) Temp. Windchill Dew Point Humidity Pressure Visibility Wind Dir Wind Speed Gust Speed Precip Events Conditions
12:15 AM 23.9 °F - 14.4 °F 67% 30.08 in 10.0 mi Calm Calm - N/A   Clear
12:35 AM 20.8 °F 16.0 °F 13.1 °F 72% 30.07 in 10.0 mi ESE 3.5 mph - N/A   Clear
12:55 AM 24.3 °F - 14.7 °F 67% 30.07 in 10.0 mi Calm Calm - N/A   Clear
1:15 AM 21.6 °F - 13.8 °F 72% 30.07 in 10.0 mi Calm Calm - N/A   Clear
1:35 AM 20.5 °F - 13.1 °F 73% 30.06 in 10.0 mi Calm Calm - N/A   Clear
1:55 AM 34.9 °F 26.6 °F 16.2 °F 46% 30.05 in 10.0 mi WSW 11.5 mph 17.3 mph N/A   Clear
2:15 AM 44.4 °F 37.5 °F 12.6 °F 28% 30.06 in 10.0 mi WSW 15.0 mph 25.3 mph N/A   Clear
2:35 AM 44.8 °F 39.9 °F 11.5 °F 26% 30.06 in 10.0 mi South 9.2 mph - N/A   Clear
2:55 AM 43.5 °F 38.9 °F 12.7 °F 29% 30.05 in 10.0 mi SSW 8.1 mph 18.4 mph N/A   Clear
3:15 AM 43.3 °F 38.1 °F 12.7 °F 29% 30.04 in 10.0 mi SSW 9.2 mph - N/A   Clear
3:35 AM 43.2 °F 37.9 °F 13.8 °F 31% 30.04 in 10.0 mi SSE 9.2 mph - N/A   Clear
3:55 AM 43.2 °F 37.9 °F 14.7 °F 32% 30.04 in 10.0 mi South 9.2 mph 17.3 mph N/A   Clear
4:15 AM 42.1 °F 35.7 °F 14.9 °F 33% 30.05 in 10.0 mi WSW 11.5 mph - N/A   Clear
4:55 AM 42.4 °F 34.7 °F 18.7 °F 39% 30.08 in 10.0 mi WSW 16.1 mph 29.9 mph N/A   Overcast
5:15 AM 35.8 °F - 28.4 °F 75% 30.07 in 2.5 mi Calm Calm - N/A Snow Light Snow
5:35 AM 35.2 °F - 30.4 °F 82% 30.06 in 2.5 mi Calm Calm - N/A Snow Light Snow
5:55 AM 36.9 °F 32.2 °F 31.1 °F 80% 30.05 in 7.0 mi NNW 5.8 mph - N/A Rain Light Rain
6:15 AM 38.8 °F 30.8 °F 31.6 °F 75% 30.05 in 10.0 mi West 13.8 mph 21.9 mph N/A   Mostly Cloudy
6:35 AM 40.5 °F 35.1 °F 31.6 °F 71% 30.05 in 10.0 mi SSW 8.1 mph - N/A   Mostly Cloudy
6:55 AM 40.5 °F 38.4 °F 31.8 °F 71% 30.06 in 10.0 mi West 3.5 mph - N/A   Overcast
7:15 AM 40.5 °F 32.8 °F 31.6 °F 71% 30.05 in 10.0 mi WSW 13.8 mph 24.2 mph N/A   Overcast
7:55 AM 41.2 °F 32.1 °F 31.6 °F 69% 30.04 in 10.0 mi WSW 19.6 mph 29.9 mph N/A   Overcast
8:15 AM 41.5 °F 32.9 °F 31.3 °F 67% 30.03 in 10.0 mi WSW 18.4 mph 27.6 mph N/A   Mostly Cloudy
8:35 AM 41.9 °F 32.6 °F 31.1 °F 66% 30.03 in 10.0 mi WSW 21.9 mph 38.0 mph N/A   Mostly Cloudy
8:55 AM 42.8 °F 33.5 °F 31.3 °F 64% 30.01 in 10.0 mi WSW 23.0 mph 36.8 mph N/A   Scattered Clouds
9:15 AM 44.2 °F 34.6 °F 32.0 °F 62% 30.00 in 10.0 mi West 27.6 mph 35.7 mph N/A   Scattered Clouds
9:35 AM 45.3 °F 36.3 °F 32.0 °F 60% 29.99 in 10.0 mi WSW 26.5 mph 44.9 mph N/A   Scattered Clouds
9:55 AM 45.5 °F 36.0 °F 31.6 °F 58% 29.99 in 10.0 mi West 29.9 mph 44.9 mph N/A   Clear
10:15 AM 46.6 °F - 31.6 °F 56% 30.00 in 10.0 mi West 23.0 mph 41.4 mph N/A   Clear
10:35 AM 48.4 °F - 29.8 °F 49% 30.00 in 10.0 mi WSW 26.5 mph 43.7 mph N/A   Clear
10:55 AM 48.6 °F - 28.8 °F 46% 29.99 in 10.0 mi West 27.6 mph 43.7 mph N/A   Clear
11:15 AM 49.5 °F - 28.6 °F 45% 29.99 in 10.0 mi West 24.2 mph 41.4 mph N/A   Clear
11:35 AM 50.2 °F - 28.6 °F 43% 29.99 in 10.0 mi WSW 15.0 mph 31.1 mph N/A   Clear
11:55 AM 48.0 °F - 27.0 °F 44% 29.99 in 10.0 mi WSW 24.2 mph 43.7 mph N/A   Scattered Clouds
12:15 PM 49.1 °F - 26.4 °F 41% 29.98 in 10.0 mi SW 6.9 mph 20.7 mph N/A   Scattered Clouds
12:35 PM 50.7 °F - 27.0 °F 40% 29.97 in 10.0 mi West 16.1 mph 28.8 mph N/A   Mostly Cloudy
12:55 PM 48.7 °F - 26.8 °F 43% 29.98 in 10.0 mi West 16.1 mph 28.8 mph N/A   Mostly Cloudy
1:15 PM 48.7 °F - 27.0 °F 43% 29.97 in 10.0 mi West 15.0 mph 31.1 mph N/A   Overcast
1:35 PM 48.6 °F - 28.8 °F 46% 29.97 in 10.0 mi West 20.7 mph 25.3 mph N/A   Overcast
1:55 PM 45.0 °F 38.9 °F 32.0 °F 60% 29.98 in 10.0 mi West 12.7 mph - N/A   Overcast
2:15 PM 45.0 °F 41.2 °F 32.0 °F 60% 29.99 in 10.0 mi West 6.9 mph - N/A Rain Light Rain
2:35 PM 44.8 °F 40.4 °F 32.0 °F 61% 29.97 in 10.0 mi West 8.1 mph - N/A   Overcast
2:55 PM 45.5 °F 41.8 °F 31.8 °F 59% 29.97 in 10.0 mi West 6.9 mph - N/A   Overcast
3:15 PM 45.5 °F 43.2 °F 32.0 °F 59% 29.95 in 10.0 mi NW 4.6 mph - N/A   Overcast
3:35 PM 45.7 °F 42.0 °F 31.6 °F 58% 29.95 in 10.0 mi WNW 6.9 mph - N/A   Mostly Cloudy
3:55 PM 45.5 °F 40.3 °F 31.1 °F 57% 29.95 in 10.0 mi West 10.4 mph - N/A   Overcast
4:15 PM 44.8 °F - 31.3 °F 59% 29.95 in 10.0 mi Calm Calm - N/A   Overcast
4:35 PM 45.5 °F - 31.1 °F 57% 29.95 in 10.0 mi Calm Calm - N/A   Overcast
4:55 PM 44.8 °F 42.4 °F 30.4 °F 57% 29.95 in 10.0 mi SSE 4.6 mph - N/A   Overcast
5:15 PM 44.1 °F 38.6 °F 28.6 °F 55% 29.95 in 10.0 mi SW 10.4 mph 18.4 mph N/A   Scattered Clouds
5:35 PM 43.3 °F 36.8 °F 28.9 °F 57% 29.95 in 10.0 mi SW 12.7 mph 18.4 mph N/A   Clear
5:55 PM 43.3 °F 37.7 °F 28.8 °F 56% 29.94 in 10.0 mi SSW 10.4 mph 21.9 mph N/A   Clear
6:15 PM 43.0 °F 37.7 °F 28.9 °F 58% 29.95 in 10.0 mi South 9.2 mph 17.3 mph N/A   Clear
6:35 PM 42.4 °F 37.0 °F 28.9 °F 59% 29.95 in 10.0 mi South 9.2 mph - N/A   Clear
6:55 PM 42.3 °F 37.3 °F 27.7 °F 56% 29.94 in 10.0 mi West 8.1 mph - N/A   Clear
7:15 PM 44.2 °F 36.7 °F 28.2 °F 53% 29.93 in 10.0 mi WSW 17.3 mph 25.3 mph N/A   Clear
7:35 PM 44.4 °F 37.2 °F 28.8 °F 54% 29.93 in 10.0 mi SW 16.1 mph 23.0 mph N/A   Clear
8:15 PM 45.1 °F 37.6 °F 30.7 °F 57% 29.94 in 10.0 mi West 18.4 mph 23.0 mph N/A   Overcast
8:35 PM 40.6 °F 32.7 °F 33.4 °F 75% 29.95 in 7.0 mi WSW 15.0 mph 21.9 mph N/A Rain Light Rain
8:55 PM 41.5 °F 33.8 °F 33.1 °F 72% 29.95 in 10.0 mi West 15.0 mph 24.2 mph N/A   Mostly Cloudy
9:15 PM 41.7 °F 33.7 °F 34.0 °F 74% 29.97 in 5.0 mi SW 16.1 mph 24.2 mph N/A Rain Rain
9:35 PM 40.1 °F 31.0 °F 33.3 °F 77% 29.95 in 4.0 mi SW 18.4 mph 27.6 mph 0.04 in Rain Light Rain
10:15 PM 41.2 °F 33.0 °F 34.0 °F 76% 29.95 in 7.0 mi SSW 16.1 mph 26.5 mph N/A Rain Light Rain
10:35 PM 41.9 °F 32.8 °F 33.4 °F 72% 29.93 in 10.0 mi SW 20.7 mph 28.8 mph N/A   Mostly Cloudy
10:55 PM 42.3 °F 34.1 °F 32.7 °F 69% 29.92 in 10.0 mi SW 17.3 mph 25.3 mph N/A   Scattered Clouds
11:15 PM 42.8 °F 34.3 °F 32.2 °F 66% 29.91 in 10.0 mi SW 19.6 mph 26.5 mph N/A   Scattered Clouds
11:35 PM 43.0 °F 34.8 °F 32.4 °F 66% 29.91 in 10.0 mi SW 18.4 mph 27.6 mph N/A   Scattered Clouds
11:55 PM 43.3 °F 35.0 °F 32.0 °F 64% 29.90 in 10.0 mi SSW 19.6 mph 27.6 mph N/A   Scattered Clouds